Satellite-Ground Cal/Val Site Overpasses Predictions

Prediction of Satellite NPP Overpassing Cal/Val Site: Antarctic Dome C

Ground Cal/Val Site Location: Latitude: -75.10, Longitude: 123.35; Satellite-Ground Site NADIR distance within 100 km.

Table of predicted overpasses for the next 14.0 days since TLE Epoch: 9/29/2017
Interval Starting Time Ending Time Minimum Distance Time Minimum Distance (km)
1 10/01/2017 15:01:48 10/01/2017 15:02:12 10/01/2017 15:02:00 56.40
2 10/02/2017 14:42:58 10/02/2017 14:43:22 10/02/2017 14:43:10 52.68
3 10/03/2017 07:44:40 10/03/2017 07:44:59 10/03/2017 07:44:49 73.86
4 10/04/2017 07:25:46 10/04/2017 07:26:13 10/04/2017 07:26:00 34.09
5 10/06/2017 15:08:12 10/06/2017 15:08:21 10/06/2017 15:08:17 94.53
6 10/07/2017 14:49:13 10/07/2017 14:49:42 10/07/2017 14:49:27 16.76
7 10/09/2017 07:32:02 10/09/2017 07:32:31 10/09/2017 07:32:17 3.29
8 10/12/2017 14:55:29 10/12/2017 14:55:58 10/12/2017 14:55:43 20.21


NCC Satellite Cal/Val Overpasses Prediction Service
